YMA7560 RJOB-RKPC

Flight info

Callsign YMA7560
Flight time N/A
Altitude 32000
Route HGE MASKU MARCO DEMIZ KATTA UBE IKE GOURA SAMDO TAMNA
Aircraft B738/M-ICAO/L

Departure

Time 2026-04-30 09:53
Airport Okayama Momotaro Airport (RJOB)

Arrival

Time N/A
Airport Jeju International Airport (RKPC)
Time Latitude Longitude Altitude Speed Heading
2026-04-30 09:42 34.75811 133.85197 794 ft 0 kts 239°
2026-04-30 09:43 34.75810 133.85191 794 ft 2 kts 266°
2026-04-30 09:43 34.75825 133.85188 794 ft 2 kts 53°
2026-04-30 09:43 34.75833 133.85204 794 ft 1 kts 65°
2026-04-30 09:43 34.75847 133.85245 794 ft 12 kts 71°
2026-04-30 09:44 34.75820 133.85329 794 ft 10 kts 162°
2026-04-30 09:44 34.75766 133.85300 794 ft 8 kts 235°
2026-04-30 09:44 34.75737 133.85242 794 ft 7 kts 239°
2026-04-30 09:44 34.75713 133.85194 794 ft 6 kts 239°
2026-04-30 09:45 34.75694 133.85155 794 ft 4 kts 239°
2026-04-30 09:45 34.75679 133.85124 794 ft 3 kts 239°
2026-04-30 09:45 34.75665 133.85095 794 ft 4 kts 240°
2026-04-30 09:45 34.75649 133.85060 794 ft 4 kts 240°
2026-04-30 09:46 34.75632 133.85023 794 ft 5 kts 240°
2026-04-30 09:46 34.75614 133.84984 794 ft 5 kts 240°
2026-04-30 09:46 34.75595 133.84943 794 ft 5 kts 240°
2026-04-30 09:46 34.75574 133.84898 794 ft 6 kts 239°
2026-04-30 09:47 34.75546 133.84840 794 ft 11 kts 239°
2026-04-30 09:47 34.75487 133.84720 794 ft 21 kts 238°
2026-04-30 09:47 34.75391 133.84537 794 ft 29 kts 238°
2026-04-30 09:47 34.75274 133.84299 794 ft 33 kts 239°
2026-04-30 09:48 34.75167 133.84105 794 ft 14 kts 220°
2026-04-30 09:48 34.75086 133.84103 794 ft 10 kts 151°
2026-04-30 09:48 34.75072 133.84111 794 ft 0 kts 155°
2026-04-30 09:52 34.75072 133.84113 794 ft 0 kts 155°
2026-04-30 09:52 34.75027 133.84163 794 ft 15 kts 99°
2026-04-30 09:52 34.75045 133.84229 794 ft 0 kts 63°
2026-04-30 09:52 34.75054 133.84248 794 ft 23 kts 62°
2026-04-30 09:53 34.75320 133.84804 795 ft 123 kts 60°
2026-04-30 09:53 34.75907 133.85877 1249 ft 162 kts 44°
2026-04-30 09:53 34.76792 133.86379 2469 ft 154 kts
2026-04-30 09:53 34.78059 133.86139 2435 ft 218 kts 341°